Regional Weather Roundup
Issued by NWS Portland, ME

Home | Current Version | Previous Version | Text Only | Print | Product List | Glossary On
Versions: 1 2 3 4 5 6 7 8 9 10 11 12 13 14 15 16 17 18 19 20 21 22 23 24 25 26 27 28 29 30 31 32 33 34 35 36 37 38 39 40 41 42 43 44 45 46 47 48 49 50
000
ASUS41 KGYX 230810
RWRGYX
WEATHER ROUNDUP FOR MAINE AND NEW HAMPSHIRE
NATIONAL WEATHER SERVICE GRAY ME
400 AM EDT WED APR 23 2014

MEZ002-005-006-010-012-015-018-020-021-024-026-027-029-230900-
MAINE

CITY           SKY/WX    TMP DP  RH WIND       PRES   REMARKS
PORTLAND       CLOUDY    47  46  97 N5        29.42R FOG
SANFORD        PTCLDY    52 N/A N/A SW7       29.41R
BAR HARBOR     CLOUDY    46  45  93 E3        29.43F
WISCASSET      CLOUDY    46  45  96 CALM      29.42S FOG
ROCKLAND       CLOUDY    45  45 100 CALM      29.41F
FRYEBURG       FOG       41  40  96 S3        29.42S VSB 1/4
LEWISTONAUBURN CLOUDY    46  45  93 N3        29.41S
AUGUSTA        CLOUDY    45  44  97 CALM      29.42R
WATERVILLE     CLOUDY    46  45  93 CALM      29.38R
BANGOR         LGT RAIN  47  45  93 SE7       29.40F FOG
GREENVILLE       N/A     42  41  96 SE3       29.37F
MILLINOCKET    RAIN      45  44  97 CALM      29.42F FOG
HOULTON        LGT RAIN  46  44  93 SE9       29.42F
PRESQUE ISLE   CLOUDY    45  39  81 SE9       29.42F
FRENCHVILLE    RAIN      37  36  96 E10       29.41F FOG
CARIBOU        RAIN      41  40  96 E6        29.41F FOG
$$

NHZ002-005-008-009-011-012-014-230900-
NEW HAMPSHIRE

CITY           SKY/WX    TMP DP  RH WIND       PRES   REMARKS
PORTSMOUTH     PTCLDY    52  52 100 W6        29.41S
ROCHESTER      CLEAR     51  49  92 VRB3      29.41S
NASHUA         CLOUDY    51  51 100 CALM      29.44F FOG
MANCHESTER     MOCLDY    53  51  93 CALM      29.41F
CONCORD        FOG       45  45 100 E5        29.42F VSB 1/4
LACONIA        CLEAR     48  45  87 SW5       29.43S
PLYMOUTH       FOG       44  43  99 CALM      29.43R VSB 1/2
BERLIN         LGT RAIN  47  44  90 CALM      29.41S
WHITEFIELD     CLOUDY    47  45  93 SW3       29.42F FOG
JAFFREY        MOCLDY    48  46  93 S5        29.45S
LEBANON        CLOUDY    47  44  90 CALM      29.44S
MT WASHINGTON  FOG       32  32 100 W43G48      N/A  VSB 0   WCI  15
$$

VTZ005-007-008-230900-
VERMONT

CITY           SKY/WX    TMP DP  RH WIND       PRES   REMARKS
ST JOHNSBURY     N/A     47  45  93 MISG      29.43R
MONTPELIER     CLOUDY    46  42  86 NW10      29.49R
BURLINGTON     CLOUDY    46  43  89 N8        29.51R
$$

MAZ007-012-024-CTZ003-RIZ002-NYZ038-NYZ072-230900-
SOUTHERN NEW ENGLAND AND NY

CITY           SKY/WX    TMP DP  RH WIND       PRES   REMARKS
BOSTON         PTCLDY    51  49  92 SW5       29.44F
WORCESTER      CLOUDY    51  48  89 W12       29.44F
NANTUCKET      PTCLDY    46  44  93 W7        29.46F
PROVIDENCE     CLOUDY    49  48  97 W3        29.46S
HARTFORD       CLOUDY    52  43  71 NW5       29.47F
ALBANY         LGT RAIN  45  37  73 NW12G20   29.54F
NEW YORK CITY  MOCLDY    56  42  59 NW14      29.50R
$$

ANZ081-ANZ082-ANZ150-NHZ014-MEZ023>029-230900-
COASTAL MARINE OBSERVATIONS

STATION/POSITION TIME  TEMP    WIND        PRES    WAVE
                       AIR SEA DIR/SP/G            HT/PER
                 (UTC) (F)     (DEG/KT/KT) (MB)    (FT/S)
MOUNT DESERT ROC 0800   44                  996.3
MATINICUS ROCK   0800   43     190/ 17/ 18  996.0F
PORTLAND WX BUOY 0800   45 42  210/  8/ 10  995.7R   4/ 6
WELLS            0800   53 41  310/  3/  5  995.0S
ISLE OF SHOALS   0800   54     260/ 12/ 13  995.4F
JEFFREYS LEDGE   0800      43                N/A     4/10
CASHES LEDGE BUO 0800   45 42  200/ 12/ 12  996.1F   4/ 6
$$

.............KEY..............
   WCI - WIND CHILL
   TC  - TEMPERATURE IN CELSIUS
   VSB - VISIBILITY IN MILES
   HX  - HEAT INDEX
   FAIR- INDICATES FEW OR NO CLOUDS BELOW 12,000 FT, WITH NO
         SIGNIFICANT WEATHER AND/OR OBSTRUCTIONS TO VISIBILITY.





USA.gov is the U.S. government's official web portal to all federal, state and local government web resources and services.